This is the latest recevied weather packets stored in our database for station/object K6CED. If no packets are shown the sender has not sent any weather packets the latest 10 day(s).
| Time | Temp. | Humidity | Pressure | Rain* | Wind** | Luminosity | Snow |
|---|---|---|---|---|---|---|---|
| 1787454532 | 28.33° C | 51% | 1015.7 hPa | 0 mm | - | 0 W/m² | - |
| 1787454227 | 28.89° C | 50% | 1015.6 hPa | 0 mm | - | 0 W/m² | - |
| 1787453927 | 28.89° C | 50% | 1015.5 hPa | 0 mm | - | 0 W/m² | - |
| 1787453623 | 28.89° C | 49% | 1015.5 hPa | 0 mm | - | 0 W/m² | - |
| 1787453318 | 29.44° C | 48% | 1015.4 hPa | 0 mm | - | 0 W/m² | - |
| 1787453017 | 29.44° C | 47% | 1015.4 hPa | 0 mm | - | 0 W/m² | - |
| 1787452712 | 29.44° C | 46% | 1015.4 hPa | 0 mm | - | 1 W/m² | - |
| 1787452411 | 30° C | 46% | 1015.3 hPa | 0 mm | - | 2 W/m² | - |
| 1787452108 | 30° C | 46% | 1015.2 hPa | 0 mm | - | 3 W/m² | - |
| 1787451808 | 30.56° C | 45% | 1015.2 hPa | 0 mm | - | 6 W/m² | - |
| 1787451502 | 30.56° C | 45% | 1015.3 hPa | 0 mm | - | 9 W/m² | - |
| 1787451197 | 30.56° C | 44% | 1015.3 hPa | 0 mm | - | 12 W/m² | - |
| 1787450893 | 31.11° C | 43% | 1015.1 hPa | 0 mm | - | 15 W/m² | - |
| 1787450588 | 31.11° C | 42% | 1015.2 hPa | 0 mm | - | 19 W/m² | - |
| 1787450284 | 31.67° C | 42% | 1015 hPa | 0 mm | - | 22 W/m² | - |
| 1787449979 | 31.67° C | 41% | 1015.1 hPa | 0 mm | - | 25 W/m² | - |
| 1787449674 | 32.22° C | 41% | 1015.3 hPa | 0 mm | - | 28 W/m² | - |
| 1787449370 | 33.89° C | 39% | 1015.1 hPa | 0 mm | - | 33 W/m² | - |
| 1787449065 | 33.33° C | 39% | 1015 hPa | 0 mm | - | 42 W/m² | - |
| 1787448758 | 33.33° C | 39% | 1015.1 hPa | 0 mm | - | 51 W/m² | - |
| 1787448456 | 33.89° C | 39% | 1015.3 hPa | 0 mm | - | 58 W/m² | - |
| 1787448152 | 34.44° C | 38% | 1015.1 hPa | 0 mm | - | 66 W/m² | - |
| 1787447851 | 34.44° C | 37% | 1015.1 hPa | 0 mm | - | 78 W/m² | - |
| 1787447546 | 34.44° C | 36% | 1015.1 hPa | 0 mm | - | 90 W/m² | - |
| 1787447242 | 35° C | 35% | 1014.8 hPa | 0 mm | - | 101 W/m² | - |
* Rain latest hour (hover to see other rain measurements)
** Current wind speed in m/s (hover to see current wind gust speed)